Year,Month,Day,Hour,Minute,Value (Times are PST for temperature in C)
2017,05,23,00,00,16.50
2017,05,23,00,01,16.60
2017,05,23,00,02,16.60
2017,05,23,00,03,16.60
2017,05,23,00,04,16.50
2017,05,23,00,05,16.50
2017,05,23,00,06,16.40
2017,05,23,00,07,16.40
2017,05,23,00,08,16.40
2017,05,23,00,09,16.40
2017,05,23,00,10,16.30
2017,05,23,00,11,16.30
2017,05,23,00,12,16.30
2017,05,23,00,13,16.20
2017,05,23,00,14,16.20
2017,05,23,00,15,16.20
2017,05,23,00,16,16.20
2017,05,23,00,17,16.20
2017,05,23,00,18,16.20
2017,05,23,00,19,16.20
2017,05,23,00,20,16.10
2017,05,23,00,21,16.20
2017,05,23,00,22,16.20
2017,05,23,00,23,16.10
2017,05,23,00,24,16.10
2017,05,23,00,25,16.10
2017,05,23,00,26,16.00
2017,05,23,00,27,16.00
2017,05,23,00,28,15.90
2017,05,23,00,29,15.90
2017,05,23,00,30,15.90
2017,05,23,00,31,15.90
2017,05,23,00,32,15.80
2017,05,23,00,33,15.80
2017,05,23,00,34,15.80
2017,05,23,00,35,15.70
2017,05,23,00,36,15.70
2017,05,23,00,37,15.70
2017,05,23,00,38,15.60
2017,05,23,00,39,15.60
2017,05,23,00,40,15.50
2017,05,23,00,41,15.50
2017,05,23,00,42,15.50
2017,05,23,00,43,15.50
2017,05,23,00,44,15.50
2017,05,23,00,45,15.50
2017,05,23,00,46,15.50
2017,05,23,00,47,15.50
2017,05,23,00,48,15.60
2017,05,23,00,49,15.60
2017,05,23,00,50,15.60
2017,05,23,00,51,15.70
2017,05,23,00,52,15.60
2017,05,23,00,53,15.60
2017,05,23,00,54,15.50
2017,05,23,00,55,15.50
2017,05,23,00,56,15.50
2017,05,23,00,57,15.40
2017,05,23,00,58,15.40
2017,05,23,00,59,15.30
2017,05,23,01,00,15.30
2017,05,23,01,01,15.30
2017,05,23,01,02,15.30
2017,05,23,01,03,15.30
2017,05,23,01,04,15.30
2017,05,23,01,05,15.40
2017,05,23,01,06,15.50
2017,05,23,01,07,15.50
2017,05,23,01,08,15.50
2017,05,23,01,09,15.50
2017,05,23,01,10,15.50
2017,05,23,01,11,15.50
2017,05,23,01,12,15.50
2017,05,23,01,13,15.60
2017,05,23,01,14,15.60
2017,05,23,01,15,15.70
2017,05,23,01,16,15.70
2017,05,23,01,17,15.80
2017,05,23,01,18,15.80
2017,05,23,01,19,15.80
2017,05,23,01,20,15.80
2017,05,23,01,21,15.70
2017,05,23,01,22,15.70
2017,05,23,01,23,15.70
2017,05,23,01,24,15.70
2017,05,23,01,25,15.70
2017,05,23,01,26,15.70
2017,05,23,01,27,15.60
2017,05,23,01,28,15.60
2017,05,23,01,29,15.60
2017,05,23,01,30,15.50
2017,05,23,01,31,15.50
2017,05,23,01,32,15.40
2017,05,23,01,33,15.40
2017,05,23,01,34,15.30
2017,05,23,01,35,15.30
2017,05,23,01,36,15.30
2017,05,23,01,37,15.30
2017,05,23,01,38,15.30
2017,05,23,01,39,15.30
2017,05,23,01,40,15.30
2017,05,23,01,41,15.30
2017,05,23,01,42,15.30
2017,05,23,01,43,15.30
2017,05,23,01,44,15.20
2017,05,23,01,45,15.20
2017,05,23,01,46,15.10
2017,05,23,01,47,15.00
2017,05,23,01,48,14.90
2017,05,23,01,49,14.80
2017,05,23,01,50,14.80
2017,05,23,01,51,14.70
2017,05,23,01,52,14.60
2017,05,23,01,53,14.60
2017,05,23,01,54,14.50
2017,05,23,01,55,14.40
2017,05,23,01,56,14.40
2017,05,23,01,57,14.30
2017,05,23,01,58,14.30
2017,05,23,01,59,14.20
2017,05,23,02,00,14.20
2017,05,23,02,01,14.20
2017,05,23,02,02,14.10
2017,05,23,02,03,14.10
2017,05,23,02,04,14.10
2017,05,23,02,05,14.10
2017,05,23,02,06,14.10
2017,05,23,02,07,14.20
2017,05,23,02,08,14.20
2017,05,23,02,09,14.30
2017,05,23,02,10,14.30
2017,05,23,02,11,14.50
2017,05,23,02,12,14.70
2017,05,23,02,13,14.80
2017,05,23,02,14,14.90
2017,05,23,02,15,15.00
2017,05,23,02,16,15.10
2017,05,23,02,17,15.20
2017,05,23,02,18,15.20
2017,05,23,02,19,15.20
2017,05,23,02,20,15.30
2017,05,23,02,21,15.40
2017,05,23,02,22,15.50
2017,05,23,02,23,15.60
2017,05,23,02,24,15.70
2017,05,23,02,25,15.70
2017,05,23,02,26,15.80
2017,05,23,02,27,15.80
2017,05,23,02,28,15.80
2017,05,23,02,29,15.90
2017,05,23,02,30,15.90
2017,05,23,02,31,15.90
2017,05,23,02,32,15.90
2017,05,23,02,33,15.90
2017,05,23,02,34,16.00
2017,05,23,02,35,16.00
2017,05,23,02,36,16.10
2017,05,23,02,37,16.10
2017,05,23,02,38,16.00
2017,05,23,02,39,16.00
2017,05,23,02,40,16.00
2017,05,23,02,41,15.90
2017,05,23,02,42,15.90
2017,05,23,02,43,15.80
2017,05,23,02,44,15.70
2017,05,23,02,45,15.70
2017,05,23,02,46,15.60
2017,05,23,02,47,15.50
2017,05,23,02,48,15.40
2017,05,23,02,49,15.30
2017,05,23,02,50,15.30
2017,05,23,02,51,15.20
2017,05,23,02,52,15.10
2017,05,23,02,53,15.00
2017,05,23,02,54,15.00
2017,05,23,02,55,14.90
2017,05,23,02,56,14.80
2017,05,23,02,57,14.80
2017,05,23,02,58,14.70
2017,05,23,02,59,14.70
2017,05,23,03,00,14.60
2017,05,23,03,01,14.50
2017,05,23,03,02,14.50
2017,05,23,03,03,14.40
2017,05,23,03,04,14.30
2017,05,23,03,05,14.30
2017,05,23,03,06,14.30
2017,05,23,03,07,14.20
2017,05,23,03,08,14.10
2017,05,23,03,09,14.10
2017,05,23,03,10,14.10
2017,05,23,03,11,14.00
2017,05,23,03,12,14.00
2017,05,23,03,13,14.00
2017,05,23,03,14,14.00
2017,05,23,03,15,14.00
2017,05,23,03,16,14.00
2017,05,23,03,17,14.10
2017,05,23,03,18,14.10
2017,05,23,03,19,14.10
2017,05,23,03,20,14.10
2017,05,23,03,21,14.20
2017,05,23,03,22,14.30
2017,05,23,03,23,14.30
2017,05,23,03,24,14.30
2017,05,23,03,25,14.30
2017,05,23,03,26,14.20
2017,05,23,03,27,14.20
2017,05,23,03,28,14.10
2017,05,23,03,29,14.10
2017,05,23,03,30,14.10
2017,05,23,03,31,14.20
2017,05,23,03,32,14.20
2017,05,23,03,33,14.20
2017,05,23,03,34,14.20
2017,05,23,03,35,14.20
2017,05,23,03,36,14.30
2017,05,23,03,37,14.30
2017,05,23,03,38,14.30
2017,05,23,03,39,14.30
2017,05,23,03,40,14.30
2017,05,23,03,41,14.20
2017,05,23,03,42,14.20
2017,05,23,03,43,14.20
2017,05,23,03,44,14.10
2017,05,23,03,45,14.10
2017,05,23,03,46,14.10
2017,05,23,03,47,14.00
2017,05,23,03,48,14.00
2017,05,23,03,49,14.00
2017,05,23,03,50,14.00
2017,05,23,03,51,13.90
2017,05,23,03,52,13.90
2017,05,23,03,53,13.90
2017,05,23,03,54,13.90
2017,05,23,03,55,13.90
2017,05,23,03,56,13.90
2017,05,23,03,57,13.80
2017,05,23,03,58,13.80
2017,05,23,03,59,13.80
2017,05,23,04,00,13.80
2017,05,23,04,01,13.70
2017,05,23,04,02,13.70
2017,05,23,04,03,13.60
2017,05,23,04,04,13.60
2017,05,23,04,05,13.60
2017,05,23,04,06,13.50
2017,05,23,04,07,13.50
2017,05,23,04,08,13.50
2017,05,23,04,09,13.50
2017,05,23,04,10,13.40
2017,05,23,04,11,13.40
2017,05,23,04,12,13.40
2017,05,23,04,13,13.30
2017,05,23,04,14,13.30
2017,05,23,04,15,13.30
2017,05,23,04,16,13.20
2017,05,23,04,17,13.20
2017,05,23,04,18,13.20
2017,05,23,04,19,13.10
2017,05,23,04,20,13.10
2017,05,23,04,21,13.10
2017,05,23,04,22,13.10
2017,05,23,04,23,13.00
2017,05,23,04,24,13.00
2017,05,23,04,25,13.00
2017,05,23,04,26,13.00
2017,05,23,04,27,12.90
2017,05,23,04,28,12.90
2017,05,23,04,29,12.90
2017,05,23,04,30,12.90
2017,05,23,04,31,12.80
2017,05,23,04,32,12.80
2017,05,23,04,33,12.80
2017,05,23,04,34,12.80
2017,05,23,04,35,12.80
2017,05,23,04,36,12.80
2017,05,23,04,37,12.80
2017,05,23,04,38,12.80
2017,05,23,04,39,12.70
2017,05,23,04,40,12.70
2017,05,23,04,41,12.70
2017,05,23,04,42,12.60
2017,05,23,04,43,12.60
2017,05,23,04,44,12.70
2017,05,23,04,45,12.70
2017,05,23,04,46,12.70
2017,05,23,04,47,12.70
2017,05,23,04,48,12.70
2017,05,23,04,49,12.70
2017,05,23,04,50,12.70
2017,05,23,04,51,12.60
2017,05,23,04,52,12.60
2017,05,23,04,53,12.60
2017,05,23,04,54,12.60
2017,05,23,04,55,12.60
2017,05,23,04,56,12.60
2017,05,23,04,57,12.60
2017,05,23,04,58,12.50
2017,05,23,04,59,12.50
2017,05,23,05,00,12.50
2017,05,23,05,01,12.50
2017,05,23,05,02,12.40
2017,05,23,05,03,12.40
2017,05,23,05,04,12.40
2017,05,23,05,05,12.40
2017,05,23,05,06,12.40
2017,05,23,05,07,12.40
2017,05,23,05,08,12.30
2017,05,23,05,09,12.30
2017,05,23,05,10,12.30
2017,05,23,05,11,12.30
2017,05,23,05,12,12.30
2017,05,23,05,13,12.30
2017,05,23,05,14,12.30
2017,05,23,05,15,12.30
2017,05,23,05,16,12.30
2017,05,23,05,17,12.30
2017,05,23,05,18,12.30
2017,05,23,05,19,12.30
2017,05,23,05,20,12.30
2017,05,23,05,21,12.30
2017,05,23,05,22,12.30
2017,05,23,05,23,12.30
2017,05,23,05,24,12.30
2017,05,23,05,25,12.20
2017,05,23,05,26,12.20
2017,05,23,05,27,12.20
2017,05,23,05,28,12.20
2017,05,23,05,29,12.20
2017,05,23,05,30,12.20
2017,05,23,05,31,12.20
2017,05,23,05,32,12.20
2017,05,23,05,33,12.10
2017,05,23,05,34,12.10
2017,05,23,05,35,12.10
2017,05,23,05,36,12.10
2017,05,23,05,37,12.10
2017,05,23,05,38,12.10
2017,05,23,05,39,12.10
2017,05,23,05,40,12.10
2017,05,23,05,41,12.10
2017,05,23,05,42,12.10
2017,05,23,05,43,12.10
2017,05,23,05,44,12.10
2017,05,23,05,45,12.10
2017,05,23,05,46,12.10
2017,05,23,05,47,12.10
2017,05,23,05,48,12.10
2017,05,23,05,49,12.10
2017,05,23,05,50,12.10
2017,05,23,05,51,12.10
2017,05,23,05,52,12.10
2017,05,23,05,53,12.10
2017,05,23,05,54,12.20
2017,05,23,05,55,12.20
2017,05,23,05,56,12.10
2017,05,23,05,57,12.20
2017,05,23,05,58,12.20
2017,05,23,05,59,12.20
2017,05,23,06,00,12.20
2017,05,23,06,01,12.20
2017,05,23,06,02,12.20
2017,05,23,06,03,12.20
2017,05,23,06,04,12.20
2017,05,23,06,05,12.30
2017,05,23,06,06,12.30
2017,05,23,06,07,12.30
2017,05,23,06,08,12.30
2017,05,23,06,09,12.30
2017,05,23,06,10,12.30
2017,05,23,06,11,12.40
2017,05,23,06,12,12.40
2017,05,23,06,13,12.40
2017,05,23,06,14,12.50
2017,05,23,06,15,12.50
2017,05,23,06,16,12.50
2017,05,23,06,17,12.60
2017,05,23,06,18,12.60
2017,05,23,06,19,12.60
2017,05,23,06,20,12.70
2017,05,23,06,21,12.70
2017,05,23,06,22,12.70
2017,05,23,06,23,12.70
2017,05,23,06,24,12.80
2017,05,23,06,25,12.80
2017,05,23,06,26,12.80
2017,05,23,06,27,12.80
2017,05,23,06,28,12.90
2017,05,23,06,29,12.90
2017,05,23,06,30,12.90
2017,05,23,06,31,12.90
2017,05,23,06,32,13.00
2017,05,23,06,33,13.00
2017,05,23,06,34,13.10
2017,05,23,06,35,13.10
2017,05,23,06,36,13.10
2017,05,23,06,37,13.10
2017,05,23,06,38,13.20
2017,05,23,06,39,13.20
2017,05,23,06,40,13.20
2017,05,23,06,41,13.30
2017,05,23,06,42,13.30
2017,05,23,06,43,13.40
2017,05,23,06,44,13.40
2017,05,23,06,45,13.50
2017,05,23,06,46,13.50
2017,05,23,06,47,13.60
2017,05,23,06,48,13.70
2017,05,23,06,49,13.90
2017,05,23,06,50,14.10
2017,05,23,06,51,14.20
2017,05,23,06,52,14.30
2017,05,23,06,53,14.40
2017,05,23,06,54,14.50
2017,05,23,06,55,14.60
2017,05,23,06,56,14.70
2017,05,23,06,57,14.80
2017,05,23,06,58,14.80
2017,05,23,06,59,14.90
2017,05,23,07,00,15.00
2017,05,23,07,01,15.00
2017,05,23,07,02,15.10
2017,05,23,07,03,15.20
2017,05,23,07,04,15.20
2017,05,23,07,05,15.30
2017,05,23,07,06,15.40
2017,05,23,07,07,15.50
2017,05,23,07,08,15.50
2017,05,23,07,09,15.60
2017,05,23,07,10,15.60
2017,05,23,07,11,15.60
2017,05,23,07,12,15.60
2017,05,23,07,13,15.60
2017,05,23,07,14,15.60
2017,05,23,07,15,15.70
2017,05,23,07,16,15.60
2017,05,23,07,17,15.60
2017,05,23,07,18,15.70
2017,05,23,07,19,15.70
2017,05,23,07,20,15.70
2017,05,23,07,21,15.70
2017,05,23,07,22,15.70
2017,05,23,07,23,15.70
2017,05,23,07,24,15.70
2017,05,23,07,25,15.80
2017,05,23,07,26,15.80
2017,05,23,07,27,15.80
2017,05,23,07,28,15.80
2017,05,23,07,29,15.80
2017,05,23,07,30,15.80
2017,05,23,07,31,15.80
2017,05,23,07,32,15.80
2017,05,23,07,33,15.90
2017,05,23,07,34,15.90
2017,05,23,07,35,15.90
2017,05,23,07,36,15.90
2017,05,23,07,37,15.90
2017,05,23,07,38,16.00
2017,05,23,07,39,16.00
2017,05,23,07,40,16.00
2017,05,23,07,41,16.10
2017,05,23,07,42,16.10
2017,05,23,07,43,16.10
2017,05,23,07,44,16.10
2017,05,23,07,45,16.20
2017,05,23,07,46,16.20
2017,05,23,07,47,16.20
2017,05,23,07,48,16.20
2017,05,23,07,49,16.10
2017,05,23,07,50,16.10
2017,05,23,07,51,16.10
2017,05,23,07,52,16.10
2017,05,23,07,53,16.10
2017,05,23,07,54,16.10
2017,05,23,07,55,16.10
2017,05,23,07,56,16.10
2017,05,23,07,57,16.10
2017,05,23,07,58,16.10
2017,05,23,07,59,16.10
2017,05,23,08,00,16.10
2017,05,23,08,01,16.10
2017,05,23,08,02,16.10
2017,05,23,08,03,16.10
2017,05,23,08,04,16.10
2017,05,23,08,05,16.10
2017,05,23,08,06,16.10
2017,05,23,08,07,16.10
2017,05,23,08,08,16.10
2017,05,23,08,09,16.10
2017,05,23,08,10,16.10
2017,05,23,08,11,16.10
2017,05,23,08,12,16.10
2017,05,23,08,13,16.10
2017,05,23,08,14,16.10
2017,05,23,08,15,16.10
2017,05,23,08,16,16.10
2017,05,23,08,17,16.10
2017,05,23,08,18,16.20
2017,05,23,08,19,16.20
2017,05,23,08,20,16.10
2017,05,23,08,21,16.20
2017,05,23,08,22,16.20
2017,05,23,08,23,16.20
2017,05,23,08,24,16.30
2017,05,23,08,25,16.30
2017,05,23,08,26,16.30
2017,05,23,08,27,16.40
2017,05,23,08,28,16.40
2017,05,23,08,29,16.40
2017,05,23,08,30,16.40
2017,05,23,08,31,16.50
2017,05,23,08,32,16.50
2017,05,23,08,33,16.50
2017,05,23,08,34,16.60
2017,05,23,08,35,16.60
2017,05,23,08,36,16.70
2017,05,23,08,37,16.80
2017,05,23,08,38,16.80
2017,05,23,08,39,16.80
2017,05,23,08,40,16.90
2017,05,23,08,41,16.90
2017,05,23,08,42,16.90
2017,05,23,08,43,16.90
2017,05,23,08,44,17.00
2017,05,23,08,45,17.10
2017,05,23,08,46,17.10
2017,05,23,08,47,17.20
2017,05,23,08,48,17.10
2017,05,23,08,49,17.20
2017,05,23,08,50,17.20
2017,05,23,08,51,17.20
2017,05,23,08,52,17.20
2017,05,23,08,53,17.20
2017,05,23,08,54,17.20
2017,05,23,08,55,17.30
2017,05,23,08,56,17.30
2017,05,23,08,57,17.30
2017,05,23,08,58,17.30
2017,05,23,08,59,17.30
2017,05,23,09,00,17.30
2017,05,23,09,01,17.40
2017,05,23,09,02,17.40
2017,05,23,09,03,17.40
2017,05,23,09,04,17.40
2017,05,23,09,05,17.40
2017,05,23,09,06,17.50
2017,05,23,09,07,17.50
2017,05,23,09,08,17.50
2017,05,23,09,09,17.50
2017,05,23,09,10,17.50
2017,05,23,09,11,17.50
2017,05,23,09,12,17.50
2017,05,23,09,13,17.50
2017,05,23,09,14,17.40
2017,05,23,09,15,17.40
2017,05,23,09,16,17.40
2017,05,23,09,17,17.40
2017,05,23,09,18,17.40
2017,05,23,09,19,17.40
2017,05,23,09,20,17.40
2017,05,23,09,21,17.50
2017,05,23,09,22,17.50
2017,05,23,09,23,17.50
2017,05,23,09,24,17.50
2017,05,23,09,25,17.40
2017,05,23,09,26,17.40
2017,05,23,09,27,17.40
2017,05,23,09,28,17.40
2017,05,23,09,29,17.50
2017,05,23,09,30,17.50
2017,05,23,09,31,17.60
2017,05,23,09,32,17.60
2017,05,23,09,33,17.60
2017,05,23,09,34,17.50
2017,05,23,09,35,17.40
2017,05,23,09,36,17.40
2017,05,23,09,37,17.40
2017,05,23,09,38,17.40
2017,05,23,09,39,17.40
2017,05,23,09,40,17.40
2017,05,23,09,41,17.40
2017,05,23,09,42,17.30
2017,05,23,09,43,17.30
2017,05,23,09,44,17.30
2017,05,23,09,45,17.30
2017,05,23,09,46,17.30
2017,05,23,09,47,17.30
2017,05,23,09,48,17.40
2017,05,23,09,49,17.40
2017,05,23,09,50,17.50
2017,05,23,09,51,17.60
2017,05,23,09,52,17.50
2017,05,23,09,53,17.50
2017,05,23,09,54,17.50
2017,05,23,09,55,17.60
2017,05,23,09,56,17.60
2017,05,23,09,57,17.70
2017,05,23,09,58,17.70
2017,05,23,09,59,17.80
2017,05,23,10,00,17.80
2017,05,23,10,01,17.80
2017,05,23,10,02,17.70
2017,05,23,10,03,17.60
2017,05,23,10,04,17.60
2017,05,23,10,05,17.60
2017,05,23,10,06,17.60
2017,05,23,10,07,17.60
2017,05,23,10,08,17.60
2017,05,23,10,09,17.50
2017,05,23,10,10,17.50
2017,05,23,10,11,17.40
2017,05,23,10,12,17.40
2017,05,23,10,13,17.40
2017,05,23,10,14,17.40
2017,05,23,10,15,17.40
2017,05,23,10,16,17.50
2017,05,23,10,17,17.60
2017,05,23,10,18,17.70
2017,05,23,10,19,17.70
2017,05,23,10,20,17.70
2017,05,23,10,21,17.80
2017,05,23,10,22,17.80
2017,05,23,10,23,17.80
2017,05,23,10,24,17.80
2017,05,23,10,25,17.80
2017,05,23,10,26,17.80
2017,05,23,10,27,17.90
2017,05,23,10,28,18.00
2017,05,23,10,29,18.10
2017,05,23,10,30,18.20
2017,05,23,10,31,18.30
2017,05,23,10,32,18.30
2017,05,23,10,33,18.30
2017,05,23,10,34,18.20
2017,05,23,10,35,18.20
2017,05,23,10,36,18.10
2017,05,23,10,37,18.10
2017,05,23,10,38,18.10
2017,05,23,10,39,18.00
2017,05,23,10,40,17.90
2017,05,23,10,41,17.80
2017,05,23,10,42,17.80
2017,05,23,10,43,17.80
2017,05,23,10,44,17.80
2017,05,23,10,45,17.80
2017,05,23,10,46,17.80
2017,05,23,10,47,17.80
2017,05,23,10,48,17.80
2017,05,23,10,49,17.90
2017,05,23,10,50,18.00
2017,05,23,10,51,18.10
2017,05,23,10,52,18.10
2017,05,23,10,53,18.20
2017,05,23,10,54,18.20
2017,05,23,10,55,18.20
2017,05,23,10,56,18.30
2017,05,23,10,57,18.40
2017,05,23,10,58,18.60
2017,05,23,10,59,18.70
2017,05,23,11,00,18.80
2017,05,23,11,01,18.90
2017,05,23,11,02,19.00
2017,05,23,11,03,19.10
2017,05,23,11,04,19.00
2017,05,23,11,05,19.00
2017,05,23,11,06,19.00
2017,05,23,11,07,19.00
2017,05,23,11,08,19.10
2017,05,23,11,09,19.20
2017,05,23,11,10,19.30
2017,05,23,11,11,19.30
2017,05,23,11,12,19.10
2017,05,23,11,13,19.00
2017,05,23,11,14,18.90
2017,05,23,11,15,18.80
2017,05,23,11,16,18.80
2017,05,23,11,17,18.80
2017,05,23,11,18,18.70
2017,05,23,11,19,18.70
2017,05,23,11,20,18.70
2017,05,23,11,21,18.60
2017,05,23,11,22,18.60
2017,05,23,11,23,18.60
2017,05,23,11,24,18.60
2017,05,23,11,25,18.60
2017,05,23,11,26,18.60
2017,05,23,11,27,18.60
2017,05,23,11,28,18.60
2017,05,23,11,29,18.50
2017,05,23,11,30,18.50
2017,05,23,11,31,18.40
2017,05,23,11,32,18.40
2017,05,23,11,33,18.30
2017,05,23,11,34,18.30
2017,05,23,11,35,18.20
2017,05,23,11,36,18.10
2017,05,23,11,37,18.20
2017,05,23,11,38,18.20
2017,05,23,11,39,18.20
2017,05,23,11,40,18.30
2017,05,23,11,41,18.30
2017,05,23,11,42,18.20
2017,05,23,11,43,18.20
2017,05,23,11,44,18.10
2017,05,23,11,45,18.10
2017,05,23,11,46,18.20
2017,05,23,11,47,18.20
2017,05,23,11,48,18.20
2017,05,23,11,49,18.20
2017,05,23,11,50,18.10
2017,05,23,11,51,18.00
2017,05,23,11,52,17.90
2017,05,23,11,53,17.80
2017,05,23,11,54,17.80
2017,05,23,11,55,17.90
2017,05,23,11,56,17.80
2017,05,23,11,57,17.80
2017,05,23,11,58,17.80
2017,05,23,11,59,17.80
2017,05,23,12,00,17.90
2017,05,23,12,01,17.90
2017,05,23,12,02,17.80
2017,05,23,12,03,17.80
2017,05,23,12,04,17.80
2017,05,23,12,05,17.80
2017,05,23,12,06,17.80
2017,05,23,12,07,17.90
2017,05,23,12,08,17.90
2017,05,23,12,09,17.90
2017,05,23,12,10,17.90
2017,05,23,12,11,17.90
2017,05,23,12,12,18.10
2017,05,23,12,13,18.30
2017,05,23,12,14,18.40
2017,05,23,12,15,18.40
2017,05,23,12,16,18.40
2017,05,23,12,17,18.40
2017,05,23,12,18,18.40
2017,05,23,12,19,18.40
2017,05,23,12,20,18.30
2017,05,23,12,21,18.30
2017,05,23,12,22,18.30
2017,05,23,12,23,18.40
2017,05,23,12,24,18.50
2017,05,23,12,25,18.70
2017,05,23,12,26,18.90
2017,05,23,12,27,19.00
2017,05,23,12,28,19.00
2017,05,23,12,29,19.00
2017,05,23,12,30,19.00
2017,05,23,12,31,19.10
2017,05,23,12,32,19.10
2017,05,23,12,33,19.10
2017,05,23,12,34,19.00
2017,05,23,12,35,18.90
2017,05,23,12,36,18.90
2017,05,23,12,37,18.90
2017,05,23,12,38,18.80
2017,05,23,12,39,18.70
2017,05,23,12,40,18.60
2017,05,23,12,41,18.50
2017,05,23,12,42,18.40
2017,05,23,12,43,18.50
2017,05,23,12,44,18.50
2017,05,23,12,45,18.60
2017,05,23,12,46,18.70
2017,05,23,12,47,18.80
2017,05,23,12,48,18.80
2017,05,23,12,49,18.80
2017,05,23,12,50,18.90
2017,05,23,12,51,18.90
2017,05,23,12,52,18.90
2017,05,23,12,53,18.90
2017,05,23,12,54,18.90
2017,05,23,12,55,18.90
2017,05,23,12,56,18.90
2017,05,23,12,57,19.00
2017,05,23,12,58,19.00
2017,05,23,12,59,19.10
2017,05,23,13,00,19.20
2017,05,23,13,01,19.30
2017,05,23,13,02,19.30
2017,05,23,13,03,19.40
2017,05,23,13,04,19.60
2017,05,23,13,05,19.70
2017,05,23,13,06,19.80
2017,05,23,13,07,19.90
2017,05,23,13,08,19.90
2017,05,23,13,09,19.90
2017,05,23,13,10,20.00
2017,05,23,13,11,20.00
2017,05,23,13,12,20.20
2017,05,23,13,13,20.40
2017,05,23,13,14,20.60
2017,05,23,13,15,20.80
2017,05,23,13,16,21.00
2017,05,23,13,17,21.10
2017,05,23,13,18,21.10
2017,05,23,13,19,21.10
2017,05,23,13,20,21.00
2017,05,23,13,21,21.00
2017,05,23,13,22,21.00
2017,05,23,13,23,21.00
2017,05,23,13,24,21.10
2017,05,23,13,25,21.20
2017,05,23,13,26,21.30
2017,05,23,13,27,21.40
2017,05,23,13,28,21.60
2017,05,23,13,29,21.70
2017,05,23,13,30,21.80
2017,05,23,13,31,21.90
2017,05,23,13,32,21.90
2017,05,23,13,33,22.00
2017,05,23,13,34,22.00
2017,05,23,13,35,22.00
2017,05,23,13,36,22.00
2017,05,23,13,37,21.90
2017,05,23,13,38,21.90
2017,05,23,13,39,21.90
2017,05,23,13,40,22.00
2017,05,23,13,41,22.00
2017,05,23,13,42,22.10
2017,05,23,13,43,22.20
2017,05,23,13,44,22.20
2017,05,23,13,45,22.20
2017,05,23,13,46,22.30
2017,05,23,13,47,22.30
2017,05,23,13,48,22.20
2017,05,23,13,49,22.20
2017,05,23,13,50,22.10
2017,05,23,13,51,22.00
2017,05,23,13,52,21.90
2017,05,23,13,53,21.80
2017,05,23,13,54,21.80
2017,05,23,13,55,21.80
2017,05,23,13,56,21.80
2017,05,23,13,57,21.70
2017,05,23,13,58,21.60
2017,05,23,13,59,21.60
2017,05,23,14,00,21.60
2017,05,23,14,01,21.60
2017,05,23,14,02,21.50
2017,05,23,14,03,21.50
2017,05,23,14,04,21.60
2017,05,23,14,05,21.60
2017,05,23,14,06,21.70
2017,05,23,14,07,21.80
2017,05,23,14,08,21.90
2017,05,23,14,09,22.10
2017,05,23,14,10,22.20
2017,05,23,14,11,22.20
2017,05,23,14,12,22.20
2017,05,23,14,13,22.20
2017,05,23,14,14,22.10
2017,05,23,14,15,22.00
2017,05,23,14,16,21.90
2017,05,23,14,17,21.80
2017,05,23,14,18,21.80
2017,05,23,14,19,21.80
2017,05,23,14,20,21.80
2017,05,23,14,21,21.80
2017,05,23,14,22,21.70
2017,05,23,14,23,21.60
2017,05,23,14,24,21.40
2017,05,23,14,25,21.40
2017,05,23,14,26,21.30
2017,05,23,14,27,21.30
2017,05,23,14,28,21.40
2017,05,23,14,29,21.40
2017,05,23,14,30,21.60
2017,05,23,14,31,21.60
2017,05,23,14,32,21.50
2017,05,23,14,33,21.50
2017,05,23,14,34,21.40
2017,05,23,14,35,21.40
2017,05,23,14,36,21.40
2017,05,23,14,37,21.30
2017,05,23,14,38,21.10
2017,05,23,14,39,21.00
2017,05,23,14,40,20.90
2017,05,23,14,41,20.80
2017,05,23,14,42,20.80
2017,05,23,14,43,20.80
2017,05,23,14,44,20.90
2017,05,23,14,45,21.10
2017,05,23,14,46,21.20
2017,05,23,14,47,21.30
2017,05,23,14,48,21.40
2017,05,23,14,49,21.50
2017,05,23,14,50,21.60
2017,05,23,14,51,21.70
2017,05,23,14,52,21.80
2017,05,23,14,53,21.80
2017,05,23,14,54,21.70
2017,05,23,14,55,21.50
2017,05,23,14,56,21.20
2017,05,23,14,57,21.00
2017,05,23,14,58,20.80
2017,05,23,14,59,20.80
2017,05,23,15,00,20.80
2017,05,23,15,01,20.80
2017,05,23,15,02,20.80
2017,05,23,15,03,20.80
2017,05,23,15,04,20.80
2017,05,23,15,05,20.70
2017,05,23,15,06,20.70
2017,05,23,15,07,20.70
2017,05,23,15,08,20.70
2017,05,23,15,09,20.70
2017,05,23,15,10,20.80
2017,05,23,15,11,20.90
2017,05,23,15,12,20.90
2017,05,23,15,13,20.80
2017,05,23,15,14,20.70
2017,05,23,15,15,20.50
2017,05,23,15,16,20.50
2017,05,23,15,17,20.50
2017,05,23,15,18,20.50
2017,05,23,15,19,20.40
2017,05,23,15,20,20.40
2017,05,23,15,21,20.40
2017,05,23,15,22,20.50
2017,05,23,15,23,20.60
2017,05,23,15,24,20.60
2017,05,23,15,25,20.80
2017,05,23,15,26,20.80
2017,05,23,15,27,20.80
2017,05,23,15,28,20.80
2017,05,23,15,29,20.60
2017,05,23,15,30,20.50
2017,05,23,15,31,20.40
2017,05,23,15,32,20.30
2017,05,23,15,33,20.30
2017,05,23,15,34,20.30
2017,05,23,15,35,20.40
2017,05,23,15,36,20.40
2017,05,23,15,37,20.50
2017,05,23,15,38,20.60
2017,05,23,15,39,20.70
2017,05,23,15,40,20.70
2017,05,23,15,41,20.70
2017,05,23,15,42,20.80
2017,05,23,15,43,20.80
2017,05,23,15,44,20.80
2017,05,23,15,45,20.80
2017,05,23,15,46,20.90
2017,05,23,15,47,20.80
2017,05,23,15,48,20.80
2017,05,23,15,49,20.80
2017,05,23,15,50,20.90
2017,05,23,15,51,20.90
2017,05,23,15,52,20.90
2017,05,23,15,53,20.90
2017,05,23,15,54,20.90
2017,05,23,15,55,21.00
2017,05,23,15,56,20.90
2017,05,23,15,57,20.90
2017,05,23,15,58,20.90
2017,05,23,15,59,20.90
2017,05,23,16,00,20.90
2017,05,23,16,01,20.80
2017,05,23,16,02,20.80
2017,05,23,16,03,20.70
2017,05,23,16,04,20.70
2017,05,23,16,05,20.60
2017,05,23,16,06,20.60
2017,05,23,16,07,20.60
2017,05,23,16,08,20.60
2017,05,23,16,09,20.60
2017,05,23,16,10,20.60
2017,05,23,16,11,20.50
2017,05,23,16,12,20.50
2017,05,23,16,13,20.50
2017,05,23,16,14,20.40
2017,05,23,16,15,20.40
2017,05,23,16,16,20.40
2017,05,23,16,17,20.50
2017,05,23,16,18,20.60
2017,05,23,16,19,20.60
2017,05,23,16,20,20.50
2017,05,23,16,21,20.40
2017,05,23,16,22,20.40
2017,05,23,16,23,20.40
2017,05,23,16,24,20.40
2017,05,23,16,25,20.40
2017,05,23,16,26,20.40
2017,05,23,16,27,20.40
2017,05,23,16,28,20.30
2017,05,23,16,29,20.40
2017,05,23,16,30,20.40
2017,05,23,16,31,20.30
2017,05,23,16,32,20.30
2017,05,23,16,33,20.30
2017,05,23,16,34,20.30
2017,05,23,16,35,20.30
2017,05,23,16,36,20.30
2017,05,23,16,37,20.20
2017,05,23,16,38,20.10
2017,05,23,16,39,19.90
2017,05,23,16,40,19.80
2017,05,23,16,41,19.80
2017,05,23,16,42,19.80
2017,05,23,16,43,19.80
2017,05,23,16,44,19.80
2017,05,23,16,45,19.80
2017,05,23,16,46,19.80
2017,05,23,16,47,19.90
2017,05,23,16,48,20.00
2017,05,23,16,49,20.10
2017,05,23,16,50,20.20
2017,05,23,16,51,20.30
2017,05,23,16,52,20.30
2017,05,23,16,53,20.40
2017,05,23,16,54,20.50
2017,05,23,16,55,20.50
2017,05,23,16,56,20.40
2017,05,23,16,57,20.30
2017,05,23,16,58,20.20
2017,05,23,16,59,20.20
2017,05,23,17,00,20.10
2017,05,23,17,01,20.20
2017,05,23,17,02,20.10
2017,05,23,17,03,20.10
2017,05,23,17,04,20.10
2017,05,23,17,05,20.10
2017,05,23,17,06,20.20
2017,05,23,17,07,20.30
2017,05,23,17,08,20.30
2017,05,23,17,09,20.20
2017,05,23,17,10,20.10
2017,05,23,17,11,20.10
2017,05,23,17,12,20.10
2017,05,23,17,13,20.10
2017,05,23,17,14,20.20
2017,05,23,17,15,20.20
2017,05,23,17,16,20.20
2017,05,23,17,17,20.10
2017,05,23,17,18,20.00
2017,05,23,17,19,19.90